Location: Deer Lodge Site
(39.6809°N, 119.9392°W)
Time: 23:17:35
(UTC-07:00)

Amateur Radio Satellites - All Passes

Search period start: 22 March 2017 22:47
Search period end: 23 March 2017 22:47
Location: Deer Lodge Site, 39.6809°N, 119.9392°W

Satellite Date Start Highest point End Downlink Frequencies (MHz)
Time Altitude Azimuth
DELFI C3 22 Mar 22:54:03 22:56:46 18° 266° (W) 22:59:29 145.870
TIGRISAT 22 Mar 23:08:10 23:12:38 75° 101° (E) 23:16:59 435.000
RS-15 22 Mar 23:11:44 23:24:05 85° 240° (WSW) 23:35:48 29.354- 29.394
SPROUT 22 Mar 23:13:39 23:14:47 11° 62° (ENE) 23:15:55 437.525
ISS 22 Mar 23:15:24 23:18:33 43° 328° (NNW) 23:21:43 437.550
UNISAT 6 22 Mar 23:17:03 23:21:31 80° 285° (WNW) 23:25:52 437.425
FO-29 22 Mar 23:22:06 23:28:13 57° 100° (E) 23:33:37 435.910
VELOX 1 22 Mar 23:31:17 23:34:34 21° 67° (ENE) 23:37:53 145.980
AIST 2D 22 Mar 23:33:00 23:35:19 17° 94° (E) 23:37:36 435.315
POLYITAN 1 22 Mar 23:33:05 23:33:30 10° 90° (E) 23:33:55 437.675
Tancredo 1 22 Mar 23:34:26 23:37:14 28° 332° (NNW) 23:40:03 437.200
ESTCUBE 1 22 Mar 23:35:35 23:40:03 76° 76° (ENE) 23:44:32 437.505/2401.250
QB50P2 22 Mar 23:36:08 23:38:01 13° 91° (E) 23:39:52 145.880/145.840
SO-50 22 Mar 23:36:55 23:39:25 14° 41° (NE) 23:41:53 436.795
PRISM 22 Mar 23:46:54 23:49:43 18° 294° (WNW) 23:52:32 437.425
DUCHIFAT 1 22 Mar 23:54:16 23:56:49 15° 92° (E) 23:59:21 145.980
50 SAT 22 Mar 23:54:58 23:57:25 18° 69° (ENE) 23:59:53 437.505
BEESAT 3 23 Mar 00:02:59 00:06:54 79° 304° (NW) 00:10:52 437.485
BEESAT 2 23 Mar 00:09:22 00:13:07 44° 116° (ESE) 00:16:57 435.950
AO-85 23 Mar 00:10:02 00:11:02 11° 319° (NW) 00:12:01 145.980
LO-87 23 Mar 00:10:46 00:13:08 17° 266° (W) 00:15:31 145.935 - 145.965
UKube-1 23 Mar 00:11:28 00:14:13 17° 65° (ENE) 00:17:00 .
BUGSAT 1 23 Mar 00:28:17 00:29:53 12° 91° (E) 00:31:29 437.445
NANOSAT C BR1 23 Mar 00:36:46 00:40:55 54° 100° (E) 00:45:02 145.865
EO-79 23 Mar 00:38:36 00:42:50 63° 101° (E) 00:47:01 145.935-145.965
SPROUT 23 Mar 00:45:49 00:50:05 69° 258° (WSW) 00:54:24 437.525
TIGRISAT 23 Mar 00:47:48 00:48:38 10° 299° (WNW) 00:49:28 435.000
ISS 23 Mar 00:54:02 00:55:42 13° 347° (NNW) 00:57:22 437.550
DX 1 23 Mar 00:57:02 01:01:20 76° 76° (ENE) 01:05:43 434.975-435.025
POLYITAN 1 23 Mar 01:05:29 01:09:42 62° 285° (WNW) 01:13:51 437.675
AIST 2D 23 Mar 01:05:37 01:08:32 25° 289° (WNW) 01:11:25 435.315
VELOX 1 23 Mar 01:06:48 01:10:48 34° 263° (W) 01:14:50 145.980
FO-29 23 Mar 01:08:13 01:12:39 21° 300° (WNW) 01:16:46 435.910
QB50P2 23 Mar 01:09:57 01:14:05 51° 287° (WNW) 01:18:10 145.880/145.840
Tancredo 1 23 Mar 01:13:18 01:14:13 11° 351° (N) 01:15:09 437.200
SO-50 23 Mar 01:15:55 01:20:26 80° 240° (WSW) 01:24:55 436.795
Oscar 19 23 Mar 01:20:36 01:23:42 16° 92° (E) 01:26:47 437.125/150
RS-15 23 Mar 01:26:42 01:34:36 21° 262° (W) 01:42:20 29.354- 29.394
50 SAT 23 Mar 01:27:35 01:30:19 22° 264° (W) 01:33:07 437.505
DUCHIFAT 1 23 Mar 01:28:41 01:32:40 41° 288° (WNW) 01:36:36 145.980
UKube-1 23 Mar 01:45:49 01:49:54 42° 261° (W) 01:54:01 .
BEESAT 2 23 Mar 01:48:22 01:51:07 18° 314° (NW) 01:53:54 435.950
BEESAT 23 Mar 01:54:23 01:57:32 18° 64° (ENE) 02:00:40 436.000
BUGSAT 1 23 Mar 02:01:28 02:05:34 52° 287° (WNW) 02:09:36 437.445
ITUPSAT 1 23 Mar 02:07:08 02:10:52 23° 66° (ENE) 02:14:36 437.325
NANOSAT C BR1 23 Mar 02:14:11 02:16:09 13° 296° (WNW) 02:18:07 145.865
EO-79 23 Mar 02:16:35 02:18:02 12° 297° (WNW) 02:19:28 145.935-145.965
O/OREOS (USA 219) 23 Mar 02:28:39 02:29:52 11° 51° (NE) 02:31:06 437.305
ISS 23 Mar 02:32:15 02:33:20 11° 7° (N) 02:34:24 437.550
Gurwin Techsat 1B 23 Mar 02:40:06 02:45:19 53° 100° (E) 02:50:29 435.225
MOZHAYETS 4 23 Mar 02:46:45 02:50:18 22° 67° (ENE) 02:53:51
Tancredo 1 23 Mar 02:50:10 02:51:31 12° 12° (NNE) 02:52:53 437.200
Oscar 19 23 Mar 02:58:18 03:03:22 59° 287° (WNW) 03:08:26 437.125/150
ITAMSAT 1 23 Mar 02:59:37 03:01:35 12° 90° (E) 03:03:32 435.822/435.867
BEESAT 23 Mar 03:30:16 03:34:54 50° 260° (W) 03:39:34 436.000
CUBESAT XI-V 23 Mar 03:31:12 03:31:56 10° 61° (ENE) 03:32:41 437.345
ITUPSAT 1 23 Mar 03:44:02 03:48:28 37° 262° (W) 03:52:55 437.325
AO-7 23 Mar 04:04:27 04:12:17 44° 100° (E) 04:20:03 .
O/OREOS (USA 219) 23 Mar 04:05:18 04:09:56 87° 253° (WSW) 04:14:32 437.305
ISS 23 Mar 04:07:49 04:10:41 26° 27° (NNE) 04:13:32 437.550
Gurwin Techsat 1B 23 Mar 04:21:05 04:24:50 20° 297° (WNW) 04:28:35 435.225
MOZHAYETS 4 23 Mar 04:23:02 04:27:14 35° 263° (W) 04:31:27
Tancredo 1 23 Mar 04:25:21 04:28:24 37° 31° (NNE) 04:31:25 437.200
KKS-1 23 Mar 04:32:40 04:37:05 67° 74° (ENE) 04:41:32 437.445
ITAMSAT 1 23 Mar 04:36:22 04:41:35 76° 286° (WNW) 04:46:45 435.822/435.867
CUBESAT XI-V 23 Mar 05:04:02 05:08:37 81° 256° (WSW) 05:13:14 437.345
STARS 23 Mar 05:19:57 05:24:22 85° 259° (WSW) 05:28:50 437.465
M-CUBED/EXP-1 PRIME 23 Mar 05:26:05 05:28:57 23° 63° (ENE) 05:32:01 437.505
DOVE 4 23 Mar 05:43:03 05:45:40 14° 89° (E) 05:48:16 437.250
ISS 23 Mar 05:44:07 05:47:14 39° 224° (SW) 05:50:20 437.550
AO-7 23 Mar 05:57:20 06:04:57 42° 298° (WNW) 06:12:31 .
CUTE-I 23 Mar 06:00:07 06:02:16 12° 90° (E) 06:04:22 437.470
Tancredo 1 23 Mar 06:01:50 06:04:24 22° 227° (SW) 06:06:58 437.200
STRAND 1 23 Mar 06:02:13 06:03:57 12° 59° (ENE) 06:05:41 437.568
KKS-1 23 Mar 06:13:06 06:14:04 11° 270° (W) 06:15:02 437.445
XW-2D 23 Mar 06:22:41 06:25:25 19° 94° (E) 06:28:07 145.860 - 145.880
XW-2B 23 Mar 06:28:21 06:31:16 21° 95° (E) 06:34:11 145.730 - 145.750
NUDT-PHONESAT 23 Mar 06:36:09 06:39:01 21° 95° (E) 06:41:51 437.300
XW-2C 23 Mar 06:38:03 06:41:21 28° 96° (E) 06:44:36 145.795 - 145.815
KAITUO 1B 23 Mar 06:38:22 06:41:20 23° 95° (E) 06:44:17 145.475/437.950
YUBILEINY 23 Mar 06:45:21 06:49:50 15° 76° (ENE) 06:54:19 435.215
AO-85 23 Mar 06:57:29 07:01:23 60° 57° (ENE) 07:05:23 145.980
M-CUBED/EXP-1 PRIME 23 Mar 07:00:30 07:03:21 22° 261° (W) 07:06:22 437.505
DOVE 4 23 Mar 07:18:31 07:23:49 72° 285° (WNW) 07:29:03 437.250
LilacSat-2 23 Mar 07:26:53 07:30:36 59° 285° (WNW) 07:34:18 437.200
XW-2F 23 Mar 07:32:32 07:36:11 54° 286° (WNW) 07:39:48 145.980 - 146.000
STRAND 1 23 Mar 07:37:11 07:42:21 88° 258° (WSW) 07:47:32 437.568
CUTE-I 23 Mar 07:37:30 07:42:52 77° 285° (WNW) 07:48:11 437.470
XW-2A 23 Mar 07:48:25 07:51:19 25° 97° (E) 07:54:10 145.665 - 145.685
XW-2D 23 Mar 07:56:26 07:59:35 26° 289° (WNW) 08:02:43 145.860 - 145.880
NO-84 23 Mar 08:01:01 08:03:44 39° 132° (SE) 08:06:25 435.350 FM
XW-2B 23 Mar 08:02:24 08:05:24 23° 290° (WNW) 08:08:22 145.730 - 145.750
HO-68 23 Mar 08:08:58 08:15:49 46° 100° (E) 08:22:37 435.675
NUDT-PHONESAT 23 Mar 08:09:56 08:12:51 22° 290° (WNW) 08:15:45 437.300
KAITUO 1B 23 Mar 08:12:25 08:15:14 21° 291° (WNW) 08:18:03 145.475/437.950
XW-2C 23 Mar 08:12:47 08:15:20 18° 292° (WNW) 08:17:51 145.795 - 145.815
BEESAT 3 23 Mar 08:20:34 08:24:26 43° 54° (NE) 08:28:16 437.485
BEESAT 2 23 Mar 08:28:02 08:31:18 23° 48° (NE) 08:34:33 435.950
YUBILEINY 23 Mar 08:36:27 08:45:13 84° 96° (E) 08:53:59 435.215
AAUSAT CUBESAT 2 23 Mar 08:38:05 08:41:35 26° 95° (E) 08:45:04 437.432
AO-85 23 Mar 08:40:29 08:41:16 10° 251° (WSW) 08:42:04 145.980
AO-73 23 Mar 08:41:11 08:42:45 12° 90° (E) 08:44:18 145.935
CUTE 1.7 + AOD 2 23 Mar 08:41:26 08:45:39 84° 286° (WNW) 08:49:52 437.475
SEEDS 23 Mar 08:41:50 08:46:00 63° 101° (E) 08:50:08 437.485
UWE-3 23 Mar 08:55:18 08:59:17 35° 97° (E) 09:03:10 435.000/436.395/437.385
PRISM 23 Mar 08:59:40 09:02:54 23° 68° (ENE) 09:06:10 437.425
CUBEBUG 2 23 Mar 09:20:44 09:25:12 70° 285° (WNW) 09:29:29 437.445
CUTE-I 23 Mar 09:21:30 09:21:58 10° 303° (WNW) 09:22:26 437.470
XW-2A 23 Mar 09:21:45 09:23:51 16° 292° (WNW) 09:25:56 145.665 - 145.685
FO-29 23 Mar 09:31:51 09:38:21 30° 64° (ENE) 09:44:36 435.910
NO-84 23 Mar 09:39:29 09:41:24 16° 329° (NNW) 09:43:21 435.350 FM
Oscar 11 23 Mar 09:43:53 09:48:07 56° 100° (E) 09:52:20 .
ZACube-1 23 Mar 09:44:25 09:48:42 75° 102° (ESE) 09:52:51 437.345
HO-68 23 Mar 09:57:02 10:03:19 34° 297° (WNW) 10:09:34 435.675
BEESAT 3 23 Mar 09:59:16 10:01:40 15° 250° (WSW) 10:04:03 437.485
TIGRISAT 23 Mar 10:05:13 10:09:50 59° 74° (ENE) 10:14:27 435.000
BEESAT 2 23 Mar 10:05:28 10:09:07 33° 246° (WSW) 10:12:44 435.950
AAUSAT CUBESAT 2 23 Mar 10:13:36 10:16:56 24° 291° (WNW) 10:20:15 437.432
UNISAT 6 23 Mar 10:14:10 10:18:51 80° 76° (ENE) 10:23:34 437.425
AO-73 23 Mar 10:15:11 10:19:20 52° 286° (WNW) 10:23:22 145.935
SEEDS 23 Mar 10:19:54 10:21:08 11° 296° (WNW) 10:22:22 437.485
DELFI C3 23 Mar 10:30:22 10:34:17 56° 100° (E) 10:38:12 145.870
UWE-3 23 Mar 10:32:22 10:35:29 19° 294° (WNW) 10:38:31 435.000/436.395/437.385
PRISM 23 Mar 10:34:41 10:38:04 25° 264° (W) 10:41:30 437.425
YUBILEINY 23 Mar 10:37:07 10:43:07 20° 296° (WNW) 10:49:09 435.215
DUCHIFAT 1 23 Mar 10:46:39 10:48:00 11° 63° (ENE) 10:49:21 145.980
PCSat 23 Mar 10:48:09 10:53:33 77° 116° (ESE) 10:58:59 145.827
FO-29 23 Mar 11:15:08 11:22:53 61° 259° (W) 11:30:22 435.910
Oscar 11 23 Mar 11:21:47 11:23:46 13° 296° (WNW) 11:25:44 .
NANOSAT C BR1 23 Mar 11:27:48 11:31:41 35° 71° (ENE) 11:35:35 145.865
RS-15 23 Mar 11:28:07 11:33:47 15° 95° (E) 11:39:31 29.354- 29.394
EO-79 23 Mar 11:29:53 11:33:53 41° 72° (ENE) 11:37:55 145.935-145.965
ESTCUBE 1 23 Mar 11:29:54 11:32:50 17° 93° (E) 11:35:46 437.505/2401.250
LO-87 23 Mar 11:37:17 11:40:42 37° 98° (E) 11:44:06 145.935 - 145.965
AIST 2D 23 Mar 11:38:15 11:41:48 86° 260° (W) 11:45:22 435.315
TIGRISAT 23 Mar 11:44:32 11:46:50 13° 269° (W) 11:49:10 435.000
POLYITAN 1 23 Mar 11:56:33 12:00:51 85° 76° (ENE) 12:05:10 437.675
QB50P2 23 Mar 12:01:01 12:05:18 80° 259° (W) 12:09:36 145.880/145.840
DELFI C3 23 Mar 12:07:23 12:08:35 11° 296° (WNW) 12:09:46 145.870
DUCHIFAT 1 23 Mar 12:18:52 12:23:05 65° 259° (W) 12:27:21 145.980
Gurwin Techsat 1B 23 Mar 12:26:14 12:26:32 10° 57° (ENE) 12:26:50 435.225
SPROUT 23 Mar 12:33:02 12:36:18 21° 94° (E) 12:39:32 437.525
PCSat 23 Mar 12:33:56 12:37:34 18° 315° (NW) 12:41:12 145.827
Oscar 19 23 Mar 12:36:29 12:40:22 22° 65° (ENE) 12:44:16 437.125/150
DX 1 23 Mar 12:47:32 12:49:49 14° 92° (E) 12:52:05 434.975-435.025
BUGSAT 1 23 Mar 12:49:32 12:53:45 89° 259° (W) 12:58:02 437.445
50 SAT 23 Mar 12:52:19 12:55:06 22° 96° (E) 12:57:53 437.505
VELOX 1 23 Mar 12:57:03 13:01:21 45° 99° (E) 13:05:38 145.980
NANOSAT C BR1 23 Mar 13:04:29 13:07:29 19° 267° (W) 13:10:29 145.865
ESTCUBE 1 23 Mar 13:05:33 13:09:49 43° 288° (WNW) 13:14:04 437.505/2401.250
EO-79 23 Mar 13:07:08 13:09:49 16° 267° (W) 13:12:30 145.935-145.965
LO-87 23 Mar 13:12:00 13:13:49 13° 293° (WNW) 13:15:37 145.935 - 145.965
AO-7 23 Mar 13:16:24 13:19:20 12° 45° (NE) 13:22:17 .
RS-15 23 Mar 13:32:01 13:43:49 71° 115° (ESE) 13:56:04 29.354- 29.394
UKube-1 23 Mar 13:33:33 13:37:25 31° 97° (E) 13:41:17 .
Gurwin Techsat 1B 23 Mar 14:00:15 14:05:34 78° 73° (ENE) 14:10:54 435.225
SPROUT 23 Mar 14:08:26 14:12:14 31° 290° (WNW) 14:16:01 437.525
Oscar 19 23 Mar 14:14:32 14:19:23 43° 261° (W) 14:24:16 437.125/150
ITAMSAT 1 23 Mar 14:16:01 14:19:38 19° 63° (ENE) 14:23:16 435.822/435.867
DX 1 23 Mar 14:22:01 14:26:16 50° 287° (WNW) 14:30:30 434.975-435.025
50 SAT 23 Mar 14:25:26 14:28:02 20° 291° (WNW) 14:30:37 437.505
VELOX 1 23 Mar 14:34:33 14:37:26 17° 295° (WNW) 14:40:18 145.980
NO-84 23 Mar 14:35:08 14:37:47 23° 34° (NE) 14:40:38 435.350 FM
SRMSAT 23 Mar 14:36:34 14:37:04 10° 183° (S) 14:37:34 437.500
AO-7 23 Mar 15:02:15 15:10:18 56° 66° (ENE) 15:18:22 .
UKube-1 23 Mar 15:09:54 15:13:16 22° 293° (WNW) 15:16:36 .
SO-50 23 Mar 15:29:11 15:33:31 40° 116° (ESE) 15:37:50 436.795
BEESAT 23 Mar 15:31:02 15:35:35 43° 99° (E) 15:40:04 436.000
Gurwin Techsat 1B 23 Mar 15:44:02 15:46:03 12° 270° (W) 15:48:06 435.225
ITUPSAT 1 23 Mar 15:44:48 15:49:31 58° 101° (E) 15:54:11 437.325
RS-15 23 Mar 15:46:06 15:57:17 41° 320° (NW) 16:08:46 29.354- 29.394
ITAMSAT 1 23 Mar 15:53:33 15:58:39 53° 259° (W) 16:03:48 435.822/435.867
NO-84 23 Mar 16:12:16 16:15:26 37° 228° (SW) 16:18:51 435.350 FM
MOZHAYETS 4 23 Mar 16:18:16 16:22:46 56° 100° (E) 16:27:13
KKS-1 23 Mar 16:26:04 16:28:17 14° 92° (E) 16:30:30 437.445
O/OREOS (USA 219) 23 Mar 16:40:42 16:42:16 12° 97° (E) 16:43:51 437.305
DOVE 4 23 Mar 16:49:01 16:50:28 11° 60° (ENE) 16:51:57 437.250
AO-7 23 Mar 16:56:10 17:03:21 32° 263° (W) 17:10:35 .
CUBESAT XI-V 23 Mar 17:01:41 17:05:36 26° 95° (E) 17:09:29 437.345
BEESAT 23 Mar 17:09:36 17:13:01 20° 295° (WNW) 17:16:25 436.000
SO-50 23 Mar 17:10:15 17:14:05 25° 313° (NW) 17:17:53 436.795
STARS 23 Mar 17:11:03 17:14:08 18° 94° (E) 17:17:11 437.465
XW-2B 23 Mar 17:11:09 17:11:51 10° 64° (ENE) 17:12:32 145.730 - 145.750
XW-2C 23 Mar 17:19:47 17:21:46 14° 66° (ENE) 17:23:45 145.795 - 145.815
KAITUO 1B 23 Mar 17:19:52 17:20:40 11° 65° (ENE) 17:21:29 145.475/437.950
CUTE-I 23 Mar 17:20:18 17:24:12 21° 63° (ENE) 17:28:05 437.470
ITUPSAT 1 23 Mar 17:24:08 17:26:50 15° 297° (WNW) 17:29:31 437.325
MOZHAYETS 4 23 Mar 17:56:59 17:59:26 14° 296° (WNW) 18:01:52
KKS-1 23 Mar 18:00:46 18:05:09 53° 287° (WNW) 18:09:30 437.445
RS-15 23 Mar 18:06:02 18:14:41 21° 353° (N) 18:23:20 29.354- 29.394
LilacSat-2 23 Mar 18:07:27 18:11:12 54° 75° (ENE) 18:14:58 437.200
XW-2F 23 Mar 18:12:08 18:15:52 57° 75° (ENE) 18:19:36 145.980 - 146.000
O/OREOS (USA 219) 23 Mar 18:16:35 18:21:03 62° 293° (WNW) 18:25:35 437.305
DOVE 4 23 Mar 18:22:47 18:27:20 79° 259° (W) 18:32:13 437.250
XW-2D 23 Mar 18:35:54 18:39:41 63° 259° (W) 18:43:29 145.860 - 145.880
HO-68 23 Mar 18:37:09 18:43:17 32° 62° (ENE) 18:49:24 435.675
M-CUBED/EXP-1 PRIME 23 Mar 18:38:39 18:42:25 24° 100° (E) 18:46:12 437.505
CUBESAT XI-V 23 Mar 18:38:54 18:42:55 29° 291° (WNW) 18:46:56 437.345
XW-2B 23 Mar 18:41:48 18:45:32 55° 259° (W) 18:49:18 145.730 - 145.750
STARS 23 Mar 18:46:29 18:50:35 38° 289° (WNW) 18:54:40 437.465
NUDT-PHONESAT 23 Mar 18:47:26 18:51:08 58° 260° (W) 18:54:50 437.300
YUBILEINY 23 Mar 18:47:59 18:56:03 40° 73° (ENE) 19:04:04 435.215
KAITUO 1B 23 Mar 18:50:33 18:54:13 52° 260° (W) 18:57:54 145.475/437.950
XW-2C 23 Mar 18:52:01 18:55:37 40° 262° (W) 18:59:13 145.795 - 145.815
CUTE-I 23 Mar 18:58:37 19:03:49 51° 260° (W) 19:09:05 437.470
AAUSAT CUBESAT 2 23 Mar 19:28:14 19:30:46 16° 66° (ENE) 19:33:18 437.432
SEEDS 23 Mar 19:32:33 19:36:23 37° 72° (ENE) 19:40:14 437.485
CUTE 1.7 + AOD 2 23 Mar 19:32:50 19:36:58 59° 74° (ENE) 19:41:07 437.475
PCSat 23 Mar 19:36:54 19:42:13 50° 57° (ENE) 19:47:28 145.827
AO-73 23 Mar 19:37:09 19:37:49 10° 62° (ENE) 19:38:28 145.935
STRAND 1 23 Mar 19:48:53 19:53:29 33° 97° (E) 19:58:03 437.568
XW-2A 23 Mar 19:50:49 19:54:12 53° 260° (W) 19:57:36 145.665 - 145.685
UWE-3 23 Mar 19:51:01 19:54:59 28° 69° (ENE) 19:58:56 435.000/436.395/437.385
M-CUBED/EXP-1 PRIME 23 Mar 20:12:39 20:16:50 35° 294° (WNW) 20:21:04 437.505
CUBEBUG 2 23 Mar 20:16:54 20:21:39 85° 76° (ENE) 20:26:25 437.445
RS-15 23 Mar 20:22:45 20:33:05 29° 29° (NNE) 20:43:07 29.354- 29.394
HO-68 23 Mar 20:23:50 20:30:42 49° 260° (W) 20:37:37 435.675
Oscar 11 23 Mar 20:37:39 20:41:39 38° 72° (ENE) 20:45:38 .
ZACube-1 23 Mar 20:38:38 20:43:04 52° 74° (ENE) 20:47:28 437.345
YUBILEINY 23 Mar 20:44:49 20:52:50 43° 273° (W) 21:00:50 435.215
AAUSAT CUBESAT 2 23 Mar 21:02:03 21:05:54 39° 262° (W) 21:09:46 437.432
Tancredo 1 23 Mar 21:02:25 21:04:17 15° 130° (SE) 21:06:11 437.200
AO-73 23 Mar 21:08:49 21:13:23 81° 259° (W) 21:17:54 145.935
SEEDS 23 Mar 21:09:30 21:12:12 17° 267° (W) 21:14:53 437.485
AO-85 23 Mar 21:11:32 21:15:09 24° 114° (ESE) 21:18:36 145.980
CUTE 1.7 + AOD 2 23 Mar 21:12:14 21:13:09 11° 270° (W) 21:14:05 437.475
DELFI C3 23 Mar 21:15:12 21:18:33 27° 70° (ENE) 21:21:55 145.870
PCSat 23 Mar 21:21:10 21:25:12 22° 254° (WSW) 21:29:13 145.827
UWE-3 23 Mar 21:27:20 21:31:20 28° 264° (W) 21:35:22 435.000/436.395/437.385
STRAND 1 23 Mar 21:28:13 21:32:31 28° 293° (WNW) 21:36:49 437.568
TIGRISAT 23 Mar 21:59:46 22:01:36 12° 90° (E) 22:03:25 435.000
UNISAT 6 23 Mar 22:08:03 22:10:57 17° 92° (E) 22:13:48 437.425
LO-87 23 Mar 22:13:54 22:15:51 14° 67° (ENE) 22:17:49 145.935 - 145.965
Oscar 11 23 Mar 22:14:59 22:17:54 18° 267° (W) 22:20:49 .
PRISM 23 Mar 22:15:56 22:19:53 41° 99° (E) 22:23:50 437.425
ZACube-1 23 Mar 22:17:06 22:19:36 14° 269° (W) 22:22:05 437.345
ISS 23 Mar 22:22:56 22:26:11 83° 320° (NW) 22:29:29 437.550
FO-29 23 Mar 22:28:26 22:32:36 19° 89° (E) 22:36:27 435.910
ESTCUBE 1 23 Mar 22:29:17 22:31:49 15° 64° (ENE) 22:34:20 437.505/2401.250
Tancredo 1 23 Mar 22:37:02 22:40:08 52° 326° (NW) 22:43:17 437.200
